Weather History for KNDZ - October, 2012

Change the Weather History Date:

Friday, October 12, 2012

  Actual Average (KPNS) Record (KPNS)
Temperature  
Mean Temperature 70 °F 71 °F  
Max Temperature 86 °F 80 °F 90 °F (1991)
Min Temperature 53 °F 62 °F 44 °F (2000)
Degree Days  
Heating Degree Days 0 1  
Month to date heating degree days 2  
Since 1 July heating degree days 3  
Cooling Degree Days 4 6  
Month to date cooling degree days 94  
Year to date cooling degree days 2464  
Growing Degree Days 20 (Base 50)    
Moisture  
Dew Point 59 °F    
Average Humidity 79    
Maximum Humidity 100    
Minimum Humidity 43    
Precipitation  
Precipitation 0.01 in 0.16 in 3.26 in (1986)
Month to date precipitation 2.09  
Year to date precipitation 52.84  
Sea Level Pressure  
Sea Level Pressure 30.18 in    
Wind  
Wind Speed 2 mph (North)    
Max Wind Speed 6 mph    
Max Gust Speed -    
Visibility 8 miles    
Events      
T = Trace of Precipitation, MM = Missing Value Source: NWS Daily Summary

Daily Weather History Graph

Daily Weather History Graph

Search for Another Location

Airport or City:

Trip Planner

Search our weather history database for the weather conditions in past years. The results will help you decide how hot, cold, wet, or windy it might be!

Date:

Astronomy

Oct. 12, 2012 Rise Set
Actual Time 6:48 AM CDT 6:19 PM CDT
Civil Twilight 6:24 AM CDT 6:43 PM CDT
Nautical Twilight 5:56 AM CDT 7:11 PM CDT
Astronomical Twilight 5:28 AM CDT 7:39 PM CDT
Moon 3:42 AM CDT (10/12) 4:20 PM CDT (10/12)
Length of Visible Light 12h 19m
Length of Day
11h 30m
Waning Crescent, 10% of the Moon is Illuminated
Oct 12
Waning Crescent
Oct 15
New
Oct 21
First Quarter
Oct 29
Full
Nov 6
Last Quarter

Hourly Weather History & Observations

Time (CDT) Temp. Heat Index Dew Point Humidity Pressure Visibility Wind Dir Wind Speed Gust Speed Precip Events Conditions
12:56 AM 62.1 °F - 60.1 °F 93% 30.17 in 10.0 mi NNW 3.5 mph - N/A   Clear
1:56 AM 60.1 °F - 57.9 °F 93% 30.16 in 7.0 mi NW 3.5 mph - N/A   Clear
2:56 AM 61.0 °F - 59.0 °F 93% 30.14 in 10.0 mi Calm Calm - N/A   Clear
3:56 AM 63.0 °F - 57.9 °F 84% 30.14 in 6.0 mi Calm Calm - N/A   Haze
4:14 AM 57.2 °F - 55.4 °F 94% 30.18 in 1.8 mi Calm Calm - N/A   Clear
4:31 AM 60.8 °F - 57.2 °F 88% 30.18 in 3.0 mi Calm Calm - N/A   Clear
4:56 AM 61.0 °F - 60.1 °F 97% 30.14 in 10.0 mi Calm Calm - N/A   Clear
5:49 AM 55.4 °F - 53.6 °F 94% 30.20 in 2.5 mi Calm Calm - N/A   Partly Cloudy
5:56 AM 55.9 °F - 55.0 °F 97% 30.16 in 1.2 mi Calm Calm - N/A   Clear
6:05 AM 55.4 °F - 53.6 °F 94% 30.20 in 3.0 mi Calm Calm - 0.01 in   Clear
6:44 AM 55.4 °F - 53.6 °F 94% 30.21 in 1.8 mi Calm Calm - 0.01 in   Clear
6:56 AM 55.0 °F - 54.0 °F 96% 30.18 in 2.5 mi NW 3.5 mph - 0.01 in   Clear
7:05 AM 53.6 °F - 53.6 °F 100% 30.22 in 3.0 mi NNW 3.5 mph - N/A   Clear
7:56 AM 64.0 °F - 60.1 °F 87% 30.20 in 10.0 mi NE 4.6 mph - N/A   Clear
8:56 AM 69.1 °F - 62.1 °F 78% 30.23 in 10.0 mi ENE 3.5 mph - N/A   Clear
9:56 AM 75.0 °F - 63.0 °F 66% 30.22 in 10.0 mi ESE 3.5 mph - N/A   Clear
10:56 AM 80.1 °F 80.9 °F 60.1 °F 50% 30.23 in 10.0 mi Calm Calm - N/A   Clear
11:56 AM 82.0 °F 83.0 °F 62.1 °F 51% 30.22 in 10.0 mi Calm Calm - N/A   Clear
12:56 PM 82.9 °F 83.3 °F 61.0 °F 47% 30.20 in 10.0 mi Variable 3.5 mph - N/A   Clear
2:56 PM 84.9 °F 84.8 °F 60.1 °F 43% 30.15 in 10.0 mi Calm Calm - N/A   Clear
3:56 PM 86.0 °F 86.1 °F 61.0 °F 43% 30.15 in 10.0 mi North 5.8 mph - N/A   Clear
4:56 PM 82.9 °F 84.4 °F 64.0 °F 53% 30.14 in 10.0 mi South 5.8 mph - N/A   Clear
5:56 PM 78.1 °F - 64.0 °F 62% 30.15 in 10.0 mi South 4.6 mph - N/A   Clear
6:56 PM 73.0 °F - 63.0 °F 71% 30.16 in 10.0 mi South 3.5 mph - N/A   Clear
7:56 PM 71.1 °F - 63.0 °F 75% 30.17 in 10.0 mi Calm Calm - N/A   Clear
8:56 PM 69.1 °F - 63.0 °F 81% 30.18 in 10.0 mi Calm Calm - N/A   Clear
9:56 PM 66.9 °F - 63.0 °F 87% 30.18 in 10.0 mi Calm Calm - N/A   Clear
11:56 PM 64.0 °F - 62.1 °F 93% 30.16 in 10.0 mi Calm Calm - N/A   Clear